User: anonymous   Login
Location: Rumah Dana
(3.1167°N, 113.0167°E)
Time: 06:21:52
(UTC+00:00)
Language:

Meteor 1-24 Rocket - Orbit

View from above orbital plane
View from above orbital plane
View from above satellite
View from above satellite

Ground track
Ground track

The orbit data is extracted from the following two-line orbital elements,

1 08800U 76032B   24281.34863874  .00000342  00000-0  17764-3 0  9991
2 08800  81.2496 140.2197 0093920 186.4157 173.5820 14.10470814494178
Epoch (UTC): 07 October 2024 08:22:02
Eccentricity: 0.0093920
inclination: 81.2496°
perigee height: 790 km
apogee height: 926 km
right ascension of ascending node: 140.2197°
argument of perigee: 186.4157°
revolutions per day: 14.10470814
mean anomaly at epoch: 173.5820°
orbit number at epoch: 49417

The dashed part of the orbit path shows where the satellite is in the earth's shadow,  

DLR